#timestamp,LO_Frequency,Hit,StdDev 
1550502015.2,286046992.5,N
1550502035.1,286046994.6,N
1550502036.0,286046994.6,N
1550502055.8,286046993.8,N
1550502075.7,286046997.8,N
1550502095.5,286046997.4,N
1550502115.3,286046998.7,N
1550502135.2,286046997.0,N
1550502155.0,286046998.7,N
1550502155.9,286046998.7,N
1550502175.8,286046996.9,N
1550502195.6,286046996.5,N
1550502215.4,286046999.6,N
1550502235.3,286046999.0,N
1550502255.1,286046999.2,N
1550502256.0,286046999.2,N
1550502275.8,286046996.5,N
1550502295.7,286046999.4,N
1550502315.5,286046998.1,N
1550502335.3,286046998.9,N
1550502355.2,286046997.5,N
1550502375.0,286046999.5,N
1550502375.9,286046999.5,N
1550502395.8,286046996.7,N
1550502415.6,286047011.9,Y
1550502435.4,286047000.8,P
1550502455.3,286047002.8,N
1550502475.1,286047000.3,N
1550502495.9,286047002.8,N
1550502515.7,286046999.6,N
1550502535.5,286046998.5,N
1550502555.4,286046999.3,N
1550502575.2,286046999.5,N
1550502595.0,286046996.6,N
1550502595.9,286046996.6,N
1550502615.8,286046996.9,N
1550502635.6,286046999.3,N
1550502655.4,286047000.6,N
1550502675.3,286047002.7,N
1550502695.1,286046999.8,N
1550502715.9,286047001.0,N
1550502735.7,286046996.6,N
1550502755.5,286046999.1,N
1550502775.4,286047000.6,N
1550502795.2,286046999.7,N
1550502815.0,286047002.6,N
1550502815.9,286047002.6,N
1550502835.8,286047002.8,N
1550502855.6,286047000.7,N
1550502875.5,286046998.8,N
1550502895.3,286046997.3,N
1550502915.1,286046996.8,N
1550502935.9,286046998.2,N
1550502955.7,286046996.5,N
1550502975.5,286046998.7,N
1550502995.4,286046997.6,N
1550503015.2,286046997.5,N
1550503035.1,286047000.8,N
1550503036.0,286047000.8,N
1550503055.8,286046998.7,N
1550503075.6,286047002.3,N
1550503095.5,286047002.0,N
1550503115.3,286047002.3,N
1550503135.1,286046999.7,N
1550503155.9,286047000.6,N
1550503175.7,286046998.9,N
1550503195.6,286046999.2,N
1550503215.4,286046996.6,N
1550503235.2,286046997.8,N
1550503255.1,286046996.6,N
1550503256.0,286046996.6,N
1550503275.8,286046999.3,N
1550503295.6,286046996.9,N
1550503315.5,286046997.2,N
1550503335.3,286046995.5,N
1550503355.2,286046995.7,N
1550503375.9,286046995.6,N
1550503395.7,286046994.9,N
1550503415.6,286046998.0,N
1550503435.4,286046999.5,N
1550503455.2,286046999.1,N
1550503475.1,286046995.6,N
1550503476.0,286046995.6,N
1550503495.8,286046996.0,N
1550503515.7,286046995.4,N
1550503535.5,286046994.7,N
1550503555.3,286046994.1,N
1550503575.2,286046993.3,N
1550503595.0,286046994.0,N
1550503595.9,286046994.0,N
1550503615.8,286046993.3,N
1550503635.6,286046994.5,N
1550503655.4,286046994.0,N
1550503675.3,286046994.2,N
1550503695.1,286046994.6,N
1550503715.9,286046994.8,N
1550503735.7,286046994.8,N
1550503755.5,286046993.4,Y
1550503775.4,286046996.9,P
1550503795.2,286046996.5,P
1550503815.1,286047001.2,N
1550503816.0,286047001.2,N
1550503835.8,286046999.5,N
1550503855.6,286046997.4,N
1550503875.5,286046997.1,N
1550503895.3,286046997.6,N
1550503915.1,286046999.1,N
1550503935.9,286046999.5,N
1550503955.7,286046996.9,N
1550503975.6,286047001.0,N
1550503995.4,286047000.0,N
1550504015.2,286047001.2,N
1550504035.1,286046998.2,N
1550504036.0,286046998.2,N
1550504055.8,286047001.2,N
1550504075.7,286047001.0,N
1550504095.5,286046998.1,N
1550504115.3,286046999.2,N
1550504135.2,286046997.4,N
1550504155.0,286046996.5,N
1550504155.9,286046996.5,N
1550504175.7,286046996.6,N
1550504195.6,286046997.1,N
1550504215.4,286046997.2,N
1550504235.3,286046997.5,N
1550504255.1,286046995.1,N
1550504256.0,286046995.1,N
1550504275.8,286046999.5,N
1550504295.7,286046996.6,N
1550504315.5,286047000.8,N
1550504335.3,286047000.3,N
1550504355.2,286047000.6,N
1550504375.0,286046999.0,N
1550504375.9,286046999.0,N
1550504395.8,286046999.3,N
1550504415.6,286046996.5,N
1550504435.4,286046998.3,N
1550504455.3,286046996.8,N
1550504475.1,286046999.1,N
1550504495.9,286047000.3,N
1550504515.7,286047000.1,N
1550504535.5,286046999.7,N
1550504555.4,286046999.9,N
1550504575.2,286046998.8,N
1550504595.0,286047000.0,N
1550504596.0,286047000.0,N
1550504615.8,286047002.7,N
1550504635.6,286046998.2,N
1550504655.5,286047000.3,N
1550504675.3,286047000.9,N
1550504695.1,286046998.6,N
1550504715.9,286046998.6,N
1550504735.7,286046999.1,N
1550504755.6,286046998.3,N
1550504775.4,286046999.2,N
1550504795.2,286046998.4,N
1550504815.1,286046998.1,N
1550504816.0,286046998.1,N
1550504835.8,286046997.0,N
1550504855.7,286046999.3,N
1550504875.5,286046998.1,N
1550504895.3,286046998.8,N
1550504915.2,286046996.9,N
1550504935.0,286046999.4,N
1550504935.9,286046999.4,N
1550504955.7,286046997.2,N
1550504975.6,286046998.1,N
1550504995.4,286046998.4,N
1550505015.3,286046997.6,N
1550505035.1,286046997.7,N
1550505036.0,286046997.7,N
1550505055.8,286046995.0,Y
1550505075.7,286046996.4,P
1550505095.5,286046994.8,P
1550505115.4,286046996.3,N
1550505135.2,286046993.6,Y
1550505155.0,286046996.6,P
1550505155.9,286046996.6,P
1550505175.8,286047001.2,P
1550505195.6,286047002.1,N
1550505215.4,286047002.6,N
1550505235.3,286047001.3,N
1550505255.1,286047003.4,N
1550505275.9,286047005.6,N
1550505295.7,286047003.5,N
1550505315.5,286047001.5,N
1550505335.4,286047001.3,N
1550505355.2,286047003.5,N
1550505375.0,286047001.4,N
1550505375.9,286047001.4,N
1550505395.8,286047003.9,N
1550505415.6,286047004.4,N
1550505435.5,286047004.0,N
1550505455.3,286047003.8,N
1550505475.1,286047001.4,N
1550505495.9,286047001.9,N
1550505515.7,286047002.8,N
1550505535.6,286047000.1,N
1550505555.4,286047002.1,N
1550505575.2,286047004.4,N
1550505595.1,286047001.8,N
1550505596.0,286047001.8,N
